TimeCDT,TemperatureF,Dew PointF,Humidity,Sea Level PressureIn,VisibilityMPH,Wind Direction,Wind SpeedMPH,Gust SpeedMPH,PrecipitationIn,Events,Conditions,WindDirDegrees,DateUTC
12:15 AM,77.0,64.4,65,30.06,10.0,ESE,9.2,-,N/A,,Unknown,110,2013-07-25 05:15:00
12:35 AM,77.0,64.4,65,30.06,10.0,ESE,8.1,-,N/A,,Unknown,120,2013-07-25 05:35:00
12:55 AM,77.0,64.4,65,30.07,10.0,ESE,6.9,-,N/A,,Unknown,120,2013-07-25 05:55:00
1:15 AM,77.0,64.4,65,30.06,10.0,ESE,8.1,-,N/A,,Unknown,120,2013-07-25 06:15:00
1:35 AM,75.2,64.4,69,30.07,10.0,SE,5.8,-,N/A,,Unknown,130,2013-07-25 06:35:00
1:55 AM,75.2,66.2,73,30.07,10.0,SE,5.8,-,N/A,,Unknown,130,2013-07-25 06:55:00
2:15 AM,75.2,66.2,73,30.06,10.0,ESE,6.9,-,N/A,,Unknown,110,2013-07-25 07:15:00
2:35 AM,75.2,66.2,73,30.06,10.0,ESE,5.8,-,N/A,,Unknown,110,2013-07-25 07:35:00
2:55 AM,73.4,66.2,78,30.07,10.0,SSE,3.5,-,N/A,,Unknown,150,2013-07-25 07:55:00
3:15 AM,73.4,66.2,78,30.07,10.0,Calm,Calm,-,N/A,,Unknown,0,2013-07-25 08:15:00
3:35 AM,73.4,66.2,78,30.08,10.0,Calm,Calm,-,N/A,,Unknown,0,2013-07-25 08:35:00
3:55 AM,73.4,66.2,78,30.08,10.0,Calm,Calm,-,N/A,,Unknown,0,2013-07-25 08:55:00
4:15 AM,73.4,66.2,78,30.08,10.0,East,4.6,-,N/A,,Unknown,90,2013-07-25 09:15:00
4:35 AM,73.4,66.2,78,30.08,10.0,East,4.6,-,N/A,,Unknown,90,2013-07-25 09:35:00
4:55 AM,73.4,68.0,83,30.10,10.0,Calm,Calm,-,N/A,,Unknown,0,2013-07-25 09:55:00
5:15 AM,73.4,68.0,83,30.10,10.0,West,3.5,-,N/A,,Unknown,260,2013-07-25 10:15:00
5:35 AM,73.4,68.0,83,30.11,10.0,Calm,Calm,-,N/A,,Unknown,0,2013-07-25 10:35:00
5:55 AM,73.4,66.2,78,30.12,10.0,WSW,3.5,-,N/A,,Unknown,240,2013-07-25 10:55:00
6:15 AM,73.4,68.0,83,30.12,10.0,Calm,Calm,-,N/A,,Unknown,0,2013-07-25 11:15:00
6:35 AM,73.4,68.0,83,30.12,10.0,Calm,Calm,-,N/A,,Unknown,0,2013-07-25 11:35:00
6:55 AM,73.4,68.0,83,30.12,10.0,Calm,Calm,-,N/A,,Unknown,0,2013-07-25 11:55:00
7:15 AM,73.4,68.0,83,30.11,10.0,ENE,5.8,-,N/A,,Unknown,60,2013-07-25 12:15:00
7:35 AM,73.4,68.0,83,30.10,10.0,SSE,3.5,-,N/A,,Unknown,160,2013-07-25 12:35:00
7:55 AM,73.4,66.2,78,30.09,10.0,Calm,Calm,-,N/A,,Unknown,0,2013-07-25 12:55:00
8:15 AM,73.4,68.0,83,30.08,10.0,Calm,Calm,-,N/A,,Unknown,0,2013-07-25 13:15:00
8:35 AM,73.4,68.0,83,30.07,10.0,East,3.5,-,N/A,,Unknown,100,2013-07-25 13:35:00
8:55 AM,73.4,68.0,83,30.10,10.0,SSW,10.4,-,N/A,,Unknown,210,2013-07-25 13:55:00
9:15 AM,75.2,62.6,65,30.10,10.0,Calm,Calm,-,N/A,,Unknown,0,2013-07-25 14:15:00
9:35 AM,77.0,64.4,65,30.10,10.0,South,5.8,-,N/A,,Unknown,190,2013-07-25 14:35:00
9:55 AM,77.0,62.6,61,30.10,10.0,SSE,5.8,-,N/A,,Unknown,150,2013-07-25 14:55:00
10:15 AM,77.0,62.6,61,30.08,10.0,East,5.8,-,N/A,,Unknown,100,2013-07-25 15:15:00
10:35 AM,77.0,64.4,65,30.06,10.0,ESE,12.7,-,N/A,,Light Drizzle,120,2013-07-25 15:35:00
10:55 AM,77.0,64.4,65,30.05,10.0,SE,16.1,-,N/A,,Unknown,140,2013-07-25 15:55:00
11:15 AM,77.0,66.2,69,30.08,10.0,South,13.8,-,N/A,,Unknown,170,2013-07-25 16:15:00
11:35 AM,78.8,66.2,65,30.12,10.0,SW,11.5,-,N/A,,Unknown,220,2013-07-25 16:35:00
11:55 AM,75.2,64.4,69,30.15,10.0,West,11.5,-,N/A,Rain,Light Rain,260,2013-07-25 16:55:00
12:15 PM,75.2,64.4,69,30.16,10.0,West,11.5,-,N/A,,Light Drizzle,260,2013-07-25 17:15:00
12:35 PM,73.4,62.6,69,30.17,10.0,WNW,10.4,-,N/A,,Light Drizzle,290,2013-07-25 17:35:00
12:55 PM,73.4,60.8,65,30.17,10.0,West,10.4,-,N/A,,Light Drizzle,280,2013-07-25 17:55:00
1:15 PM,69.8,62.6,78,30.16,10.0,West,9.2,-,N/A,Rain,Light Rain,270,2013-07-25 18:15:00
1:35 PM,69.8,62.6,78,30.15,10.0,Calm,Calm,-,N/A,Rain,Light Rain,0,2013-07-25 18:35:00
1:55 PM,69.8,62.6,78,30.08,10.0,SSE,13.8,-,0.01,Rain,Light Rain,150,2013-07-25 18:55:00
2:15 PM,71.6,64.4,78,30.07,10.0,SE,10.4,-,N/A,,Unknown,140,2013-07-25 19:15:00
2:35 PM,75.2,64.4,69,30.06,10.0,SSE,10.4,-,N/A,Rain,Light Rain,160,2013-07-25 19:35:00
2:55 PM,73.4,64.4,73,30.06,10.0,South,17.3,-,N/A,,Unknown,170,2013-07-25 19:55:00
3:15 PM,77.0,64.4,65,30.03,10.0,SSE,12.7,-,N/A,,Unknown,150,2013-07-25 20:15:00
3:35 PM,78.8,64.4,61,30.03,10.0,SSE,11.5,-,N/A,,Unknown,160,2013-07-25 20:35:00
3:55 PM,77.0,64.4,65,30.09,10.0,WSW,13.8,-,N/A,Rain,Light Rain,240,2013-07-25 20:55:00
4:15 PM,77.0,64.4,65,30.08,10.0,SSW,13.8,19.6,N/A,,Unknown,200,2013-07-25 21:15:00
4:35 PM,78.8,64.4,61,30.05,10.0,South,11.5,20.7,N/A,,Unknown,170,2013-07-25 21:35:00
4:55 PM,78.8,64.4,61,30.02,10.0,SSE,11.5,18.4,N/A,,Unknown,150,2013-07-25 21:55:00
5:15 PM,77.0,64.4,65,30.01,10.0,SSE,8.1,-,N/A,,Unknown,150,2013-07-25 22:15:00
5:35 PM,75.2,64.4,69,30.05,10.0,West,6.9,-,N/A,,Light Drizzle,260,2013-07-25 22:35:00
5:55 PM,77.0,64.4,65,30.06,10.0,WSW,5.8,-,N/A,Rain,Light Rain,250,2013-07-25 22:55:00
6:15 PM,73.4,62.6,69,30.05,10.0,South,12.7,-,0.01,Rain,Light Rain,190,2013-07-25 23:15:00
6:35 PM,71.6,59.0,64,30.03,10.0,South,16.1,-,0.02,Rain,Rain,180,2013-07-25 23:35:00
6:55 PM,71.6,62.6,73,30.02,10.0,South,18.4,23.0,0.02,,Unknown,190,2013-07-25 23:55:00
7:15 PM,73.4,62.6,69,30.00,10.0,South,17.3,20.7,N/A,,Unknown,190,2013-07-26 00:15:00
7:35 PM,73.4,64.4,73,30.00,10.0,South,10.4,-,N/A,,Unknown,180,2013-07-26 00:35:00
7:55 PM,73.4,64.4,73,30.01,10.0,South,9.2,-,N/A,,Unknown,170,2013-07-26 00:55:00
8:15 PM,73.4,66.2,78,30.02,10.0,South,10.4,-,N/A,Rain,Light Rain,180,2013-07-26 01:15:00
8:35 PM,73.4,66.2,78,30.01,10.0,SSE,12.7,-,N/A,,Unknown,160,2013-07-26 01:35:00
8:55 PM,73.4,66.2,78,30.01,10.0,South,10.4,-,N/A,Thunderstorm,Thunderstorm,170,2013-07-26 01:55:00
9:15 PM,71.6,68.0,88,30.02,4.0,SE,4.6,-,0.06,Rain-Thunderstorm,Thunderstorms and Rain,140,2013-07-26 02:15:00
9:35 PM,69.8,64.4,83,30.08,4.0,WNW,24.2,33.4,0.24,Rain-Thunderstorm,Heavy Thunderstorms and Rain,300,2013-07-26 02:35:00
9:55 PM,68.0,64.4,88,30.10,0.5,East,16.1,40.3,1.70,Rain-Thunderstorm,Heavy Thunderstorms and Rain,80,2013-07-26 02:55:00
10:15 PM,68.0,64.4,88,30.05,4.0,East,17.3,25.3,0.36,Rain-Thunderstorm,Light Thunderstorms and Rain,90,2013-07-26 03:15:00
10:35 PM,68.0,66.2,94,30.03,2.5,ESE,23.0,27.6,0.64,Rain-Thunderstorm,Heavy Thunderstorms and Rain,110,2013-07-26 03:35:00
10:55 PM,69.8,68.0,94,30.01,10.0,Calm,Calm,-,0.68,Rain-Thunderstorm,Light Thunderstorms and Rain,0,2013-07-26 03:55:00
11:15 PM,69.8,66.2,88,30.03,10.0,East,17.3,26.5,N/A,Thunderstorm,Thunderstorm,80,2013-07-26 04:15:00
11:35 PM,69.8,68.0,94,30.02,10.0,ESE,12.7,23.0,N/A,Thunderstorm,Unknown,110,2013-07-26 04:35:00
11:55 PM,71.6,66.2,83,30.03,10.0,East,11.5,16.1,N/A,Thunderstorm,Unknown,100,2013-07-26 04:55:00